{"data":{"norad_id":59851,"intl_designator":"2024-097S","name":"STARLINK-31896","alt_names":[],"object_type":"PAYLOAD","status":"ACTIVE","operator":null,"country":"US","launch_date":"2024-05-23","launch_site_code":"AFETR","launch_vehicle":null,"mission":null,"orbit_class":"UNKNOWN","rcs_meters":null,"size_class":null,"mass_kg":null,"dimensions":null,"purposes":["comms"],"wikipedia_slug":null,"has_3d_model":false,"image_url":null,"decayed_at":null,"tle_current":{"epoch":"2026-09-21T07:17:39.903648Z","epoch_age_seconds":105112,"freshness":"FRESH","line1":"1 59851U 24097S   26264.30393407  .00000257  00000+0  18844-4 0  9991","line2":"2 59851  43.0013 249.6208 0001196 272.1044  87.9671 15.27578739131837","mean_motion":15.27578739,"eccentricity":0.0001196,"inclination_deg":43.0013,"raan_deg":249.6208,"arg_perigee_deg":272.1044,"mean_anomaly_deg":87.9671,"bstar":1.8844e-5,"rev_number":13183,"period_min":94.26682652985,"perigee_km":482.23227362121,"apogee_km":483.87347023858,"semimajor_km":6861.1898719299,"source":"CELESTRAK","updated_at":"2026-09-22T09:00:49.098661Z"}}}